Weather History for Culdrose, United Kingdom

Change the Weather History Date:

Monday, January 28, 2013

  Actual Average Record
Temperature  
Mean Temperature 46 °F -  
Max Temperature 51 °F 46 °F 51 °F (1999)
Min Temperature 42 °F 38 °F 28 °F (2011)
Degree Days  
Heating Degree Days 18    
Moisture  
Dew Point 46 °F    
Average Humidity 91    
Maximum Humidity 100    
Minimum Humidity 77    
Precipitation  
Precipitation 0.04 in - - ()
Sea Level Pressure  
Sea Level Pressure 29.71 in    
Wind  
Wind Speed 20 mph ()    
Max Wind Speed 43 mph    
Max Gust Speed 58 mph    
Visibility 4.2 miles    
Events Rain    
Averages and records for this station are not official NWS values.
T = Trace of Precipitation, MM = Missing Value Source: Averaged Metar Reports

Daily Weather History Graph

Daily Weather History Graph

Search for Another Location

Airport:

Trip Planner

Search our weather history database for the weather conditions in past years. The results will help you decide how hot, cold, wet, or windy it might be!

Date:

Astronomy

Jan. 28, 2013 Rise Set
Actual Time 8:00 AM GMT 5:08 PM GMT
Civil Twilight 7:24 AM GMT 5:43 PM GMT
Nautical Twilight 6:45 AM GMT 6:23 PM GMT
Astronomical Twilight 6:07 AM GMT 7:01 PM GMT
Moon 7:04 PM GMT (1/28) 8:05 AM GMT (1/28)
Length of Visible Light 10h 19m
Length of Day
9h 08m
Full, 98% of the Moon is Illuminated
Jan 28
Full
Feb 3
Last Quarter
Feb 10
New
Feb 17
First Quarter
Feb 25
Full

Hourly Weather History & Observations

Time (GMT) Temp. Windchill Dew Point Humidity Pressure Visibility Wind Dir Wind Speed Gust Speed Precip Events Conditions
12:50 AM 42.8 °F 34.8 °F 39.2 °F 87% 29.74 in 6.2 mi West 17.3 mph 29.9 mph N/A   Partly Cloudy
1:50 AM 42.8 °F 34.3 °F 39.2 °F 87% 29.77 in 6.2 mi West 19.6 mph 32.2 mph N/A   Partly Cloudy
2:50 AM 43 °F - 39 °F 82% 29.81 in 12 mi West 11.5 mph - -   Clear
2:50 AM 42.8 °F 36.6 °F 39.2 °F 87% 29.80 in - West 11.5 mph - N/A   Clear
3:50 AM 44.6 °F 38.8 °F 41.0 °F 87% 29.80 in 6.2 mi West 11.5 mph 24.2 mph N/A   Scattered Clouds
4:50 AM 44.6 °F 36.6 °F 41.0 °F 87% 29.80 in 6.2 mi WSW 19.6 mph - N/A   Partly Cloudy
5:50 AM 46 °F - 41 °F 77% 29.81 in 11 mi WSW 16.1 mph - -   Overcast
5:50 AM 46.4 °F 39.8 °F 41.0 °F 81% 29.80 in 6.2 mi WSW 16.1 mph 29.9 mph N/A   Mostly Cloudy
6:50 AM 46.4 °F 39.0 °F 42.8 °F 87% 29.80 in 6.2 mi WSW 19.6 mph 32.2 mph N/A   Mostly Cloudy
7:50 AM 48.2 °F - 42.8 °F 82% 29.80 in 6.2 mi WSW 25.3 mph - N/A   Haze
8:50 AM 48 °F - 45 °F 84% 29.79 in 9 mi SW 28.8 mph - -   Scattered Clouds
8:50 AM 48.2 °F - 44.6 °F 87% 29.77 in 6.2 mi SW 28.8 mph - N/A   Mostly Cloudy
9:50 AM 48.2 °F - 46.4 °F 93% 29.74 in 6.2 mi SW 26.5 mph - N/A   Haze
10:50 AM 50.0 °F - 46.4 °F 87% 29.74 in 6.2 mi SW 31.1 mph - N/A   Haze
11:50 AM 50 °F - 47 °F 87% 29.72 in 4 mi SSW 29.9 mph - - Rain Light Drizzle
11:50 AM 50.0 °F - 48.2 °F 94% 29.71 in 4.3 mi SSW 29.9 mph 43.7 mph N/A   Haze
12:34 PM 50.0 °F - 48.2 °F 94% 29.68 in 1.9 mi SSW 29.9 mph - N/A Rain Light Rain
12:50 PM 50.0 °F - 48.2 °F 94% 29.65 in 1.9 mi SW 33.4 mph 44.9 mph N/A Rain Light Rain
1:50 PM 50.0 °F - 48.2 °F 94% 29.62 in 2.5 mi SW 40.3 mph 52.9 mph N/A Rain Light Rain
2:50 PM 51 °F - 49 °F 92% 29.61 in 3 mi SW 42.6 mph - - Rain Light Drizzle
2:50 PM 50.0 °F - 50.0 °F 100% 29.59 in 3.1 mi SW 42.6 mph 57.5 mph N/A   Haze
3:50 PM 50.0 °F - 50.0 °F 100% 29.59 in 1.2 mi SW 41.4 mph 56.4 mph N/A Rain Light Rain
4:50 PM 51.8 °F - 50.0 °F 94% 29.59 in 1.2 mi WSW 40.3 mph 51.8 mph N/A Rain Light Rain
5:50 PM 51 °F - 50 °F 96% 29.63 in 2 mi WSW 25.3 mph - - Rain Light Rain
5:50 PM 51.8 °F - 50.0 °F 94% 29.62 in 1.9 mi WSW 25.3 mph 40.3 mph N/A Rain Light Rain
6:50 PM 51.8 °F - 50.0 °F 94% 29.62 in 1.6 mi WSW 25.3 mph 39.1 mph N/A Rain Light Rain
7:50 PM 51.8 °F - 50.0 °F 94% 29.65 in 2.5 mi WSW 20.7 mph 38.0 mph N/A   Overcast
8:50 PM 51 °F - 51 °F 98% 29.68 in 2 mi WSW 17.3 mph - -   Mist
8:50 PM 51.8 °F - 50.0 °F 94% 29.65 in 2.5 mi WSW 17.3 mph 33.4 mph N/A   Overcast
9:50 PM 51.8 °F - 50.0 °F 94% 29.68 in 2.5 mi WSW 17.3 mph 28.8 mph N/A   Overcast
10:50 PM 51.8 °F - 50.0 °F 94% 29.68 in 1.6 mi WSW 18.4 mph - N/A Rain Light Rain
11:50 PM 50 °F - 50 °F 100% 29.69 in 0 mi WSW 11.5 mph - - Rain Rain
11:50 PM 50.0 °F - 50.0 °F 100% 29.68 in 0.4 mi WSW 11.5 mph - N/A Rain Rain